Regional Weather Roundup
Issued by NWS

Home | Current Version | Previous Version | Text Only | Print | Product List | Glossary On
Versions: 1 2 3 4 5 6 7 8 9 10 11 12 13 14 15 16 17 18 19 20 21 22 23 24 25 26 27 28 29 30 31 32 33 34 35 36 37 38 39 40 41 42 43 44 45 46 47 48
000
ASUS45 KCYS 230010
RWRWY

WYOMING REGIONAL WEATHER ROUNDUP
NATIONAL WEATHER SERVICE CHEYENNE WY
500 PM MST MON DEC 22 2014

NOTE:  "FAIR" INDICATES FEW OR NO CLOUDS BELOW 12,000 FEET
WITH NO SIGNIFICANT WEATHER AND/OR OBSTRUCTIONS TO VISIBILITY.

WYZ001-230100-
YELLOWSTONE NATIONAL PARK

CITY           SKY/WX    TMP DP  RH WIND       PRES   REMARKS
LK YELLOWSTONE   N/A     18  12  77 W7        29.94R WCI   9
6HR MIN TEMP:  17; 6HR MAX TEMP:  22; 6HR PCP:  0.05;

W YELLOWSTONE  NOT AVBL

$$
WYZ002>013-054>058-071-098>099-230100-
NORTHERN WYOMING

CITY           SKY/WX    TMP DP  RH WIND       PRES   REMARKS
JACKSON        MOCLDY    27  19  74 W7        29.95R WCI  19
CODY           MOCLDY    34  18  51 NW5       29.91R WCI  30
GREYBULL       FAIR      33  25  72 NW23      29.88R WCI  21
6HR MIN TEMP:  31; 6HR MAX TEMP:  36; 6HR PCP: TRACE;

WORLAND        FAIR      32  21  64 N18       29.89R WCI  20
6HR MIN TEMP:  28; 6HR MAX TEMP:  35; 6HR PCP: TRACE;

SHERIDAN       MOCLDY    34  25  69 NW25      29.86R WCI  21
6HR MIN TEMP:  33; 6HR MAX TEMP:  38; 6HR PCP: TRACE;

BUFFALO        FAIR      30  21  69 NW36G46   29.81R WCI  14
6HR MIN TEMP:  30; 6HR MAX TEMP:  37; 6HR PCP: TRACE;

GILLETTE       CLOUDY    33  22  63 NW28G37   29.74R WCI  20
6HR MIN TEMP:  33; 6HR MAX TEMP:  37;

HULETT           N/A    N/A N/A N/A MISG        N/A
NEWCASTLE      LGT SNOW  30  27  86 NW23G33   29.67S WCI  17

$$
WYZ014>020-022>026-101>103-230100-
CENTRAL WYOMING

CITY           SKY/WX    TMP DP  RH WIND       PRES   REMARKS
BIG PINEY      FAIR      21  14  74 N21       29.92R WCI   5
6HR MIN TEMP:  21; 6HR MAX TEMP:  33; 6HR PCP:  0.01;

PINEDALE       FAIR      19  18  93 NW10      29.92R WCI   8
DUBOIS         NOT AVBL
LANDER         CLOUDY    27  23  85 S7        29.89R WCI  19
6HR MIN TEMP:  26; 6HR MAX TEMP:  35;

RIVERTON       MOCLDY    28  21  75 N9        29.90R WCI  19
6HR MIN TEMP:  26; 6HR MAX TEMP:  35;

CASPER         MOCLDY    28  23  81 CALM      29.82R
6HR MIN TEMP:  28; 6HR MAX TEMP:  33; 6HR PCP:  0.01;

DOUGLAS        FAIR      29  22  75 NW17      29.77R WCI  17
6HR MIN TEMP:  29; 6HR MAX TEMP:  37; 6HR PCP: TRACE;


$$
WYZ021-027>030-104>119-230100-
SOUTHERN WYOMING

CITY           SKY/WX    TMP DP  RH WIND       PRES   REMARKS
EVANSTON       FLURRIES  28  24  85 NW12      29.95R WCI  18
6HR MIN TEMP:  28; 6HR MAX TEMP:  35; 6HR PCP: TRACE;

KEMMERER       LGT SNOW  27  23  86 W24G30    29.93R WCI  12
FORT BRIDGER   MOCLDY    28  25  89 NW13      29.96R WCI  17
ROCK SPRINGS   FAIR      25  14  63 NW16G22   29.87R WCI  12
6HR MIN TEMP:  25; 6HR MAX TEMP:  33; 6HR PCP: TRACE;

DIXON          CLOUDY    26  22  86 NW10      29.86R WCI  16
RAWLINS        CLOUDY    25  17  72 NW16G28   29.82R WCI  12
6HR MIN TEMP:  25; 6HR MAX TEMP:  30; 6HR PCP: TRACE;

SARATOGA       FAIR      23  19  86 NW9       29.81R WCI  13
LARAMIE        LGT SNOW  20  17  88 NW18      29.72R FOG     WCI   5
6HR MIN TEMP:  19; 6HR MAX TEMP:  25; 6HR PCP:  0.01;

CHEYENNE       FLURRIES  27  19  72 N16G35    29.71R WCI  15
6HR MIN TEMP:  27; 6HR MAX TEMP:  32; 6HR PCP: TRACE;

TORRINGTON     LGT SNOW N/A N/A N/A NW20G28   29.71R
                                      6HR PCP: TRACE;

PINE BLUFFS    FAIR      28  23  80 NW13      29.70R WCI  18

$$


USA.gov is the U.S. government's official web portal to all federal, state and local government web resources and services.